EN

Hourly Weather Amaraji

Today, 16 January, Saturday

Time Temperature Precipitation Wind Pressure Humidity
00:00 +23°C° 0 mm 1 mps 735 mmHg 89%
01:00 +23°C° 0 mm 1 mps 735 mmHg 88%
02:00 +23°C° 0 mm 1 mps 735 mmHg 89%
03:00 +23°C° 0 mm 1 mps 735 mmHg 89%
04:00 +23°C° 0 mm 1 mps 734 mmHg 86%
05:00 +23°C° 0 mm 1 mps 735 mmHg 85%
06:00 +23°C° 0 mm 1 mps 735 mmHg 84%
07:00 +24°C° 0 mm 1 mps 735 mmHg 84%
08:00 +26°C° 0 mm 2 mps 736 mmHg 74%
09:00 +28°C° 0 mm 3 mps 736 mmHg 64%
10:00 +30°C° 0 mm 3 mps 736 mmHg 52%
11:00 +32°C° 0 mm 4 mps 736 mmHg 48%
12:00 +33°C° 0 mm 4 mps 736 mmHg 45%
13:00 +34°C° 0 mm 5 mps 736 mmHg 42%
14:00 +34°C° 0 mm 5 mps 735 mmHg 44%
15:00 +33°C° 0 mm 5 mps 734 mmHg 46%
16:00 +33°C° 0 mm 5 mps 734 mmHg 48%
17:00 +30°C° 0 mm 5 mps 734 mmHg 55%
18:00 +28°C° 0 mm 4 mps 734 mmHg 62%
19:00 +26°C° 0 mm 4 mps 734 mmHg 70%
20:00 +25°C° 0 mm 3 mps 735 mmHg 74%
21:00 +25°C° 0 mm 3 mps 735 mmHg 79%
22:00 +24°C° 0 mm 2 mps 735 mmHg 84%
23:00 +24°C° 0 mm 2 mps 735 mmHg 87%

Tomorrow, 17 January, Sunday

Time Temperature Precipitation Wind Pressure Humidity
00:00 +24°C° 0 mm 2 mps 735 mmHg 90%
01:00 +23°C° 0 mm 2 mps 735 mmHg 93%
02:00 +23°C° 0.2 mm 2 mps 735 mmHg 94%
03:00 +23°C° 0.2 mm 2 mps 735 mmHg 94%
04:00 +23°C° 0.2 mm 2 mps 734 mmHg 95%
05:00 +24°C° 0.2 mm 2 mps 735 mmHg 94%
06:00 +24°C° 0.2 mm 2 mps 735 mmHg 93%
07:00 +24°C° 0.2 mm 1 mps 735 mmHg 92%
08:00 +26°C° 0.1 mm 2 mps 735 mmHg 83%
09:00 +28°C° 0.1 mm 3 mps 736 mmHg 73%
10:00 +29°C° 0.1 mm 4 mps 736 mmHg 63%
11:00 +30°C° 0.1 mm 5 mps 736 mmHg 60%
12:00 +32°C° 0.1 mm 5 mps 736 mmHg 56%
13:00 +33°C° 0.1 mm 5 mps 735 mmHg 52%
14:00 +32°C° 0.1 mm 5 mps 735 mmHg 54%
15:00 +32°C° 0.1 mm 5 mps 734 mmHg 55%
16:00 +30°C° 0.1 mm 6 mps 734 mmHg 57%
17:00 +29°C° 0 mm 5 mps 734 mmHg 63%
18:00 +28°C° 0 mm 4 mps 734 mmHg 69%
19:00 +26°C° 0 mm 4 mps 734 mmHg 75%
20:00 +25°C° 0 mm 3 mps 735 mmHg 81%
21:00 +25°C° 0 mm 3 mps 735 mmHg 87%
22:00 +24°C° 0 mm 2 mps 735 mmHg 92%
23:00 +24°C° 0.1 mm 2 mps 735 mmHg 93%

Day after tomorrow, 18 January, Monday

Time Temperature Precipitation Wind Pressure Humidity
00:00 +24°C° 0.1 mm 2 mps 735 mmHg 94%
01:00 +23°C° 0.1 mm 1 mps 735 mmHg 95%
02:00 +23°C° 0.1 mm 1 mps 735 mmHg 95%
03:00 +23°C° 0.1 mm 1 mps 735 mmHg 96%
04:00 +23°C° 0.1 mm 1 mps 734 mmHg 96%
05:00 +23°C° 0.2 mm 1 mps 735 mmHg 95%
06:00 +24°C° 0.2 mm 1 mps 735 mmHg 94%
07:00 +24°C° 0.2 mm 1 mps 735 mmHg 93%
08:00 +26°C° 0.2 mm 2 mps 735 mmHg 84%
09:00 +27°C° 0.2 mm 3 mps 736 mmHg 75%
10:00 +29°C° 0.2 mm 4 mps 736 mmHg 66%
11:00 +30°C° 0 mm 4 mps 736 mmHg 60%
12:00 +32°C° 0 mm 4 mps 736 mmHg 55%
13:00 +33°C° 0 mm 4 mps 736 mmHg 49%
14:00 +33°C° 0 mm 5 mps 735 mmHg 50%
15:00 +32°C° 0 mm 5 mps 735 mmHg 51%
16:00 +32°C° 0 mm 5 mps 734 mmHg 51%
17:00 +29°C° 0 mm 5 mps 734 mmHg 61%
18:00 +28°C° 0 mm 4 mps 735 mmHg 71%
19:00 +26°C° 0 mm 4 mps 735 mmHg 81%
20:00 +26°C° 0 mm 3 mps 735 mmHg 85%
21:00 +25°C° 0 mm 2 mps 735 mmHg 90%
22:00 +24°C° 0 mm 2 mps 736 mmHg 95%
23:00 +24°C° 0.1 mm 2 mps 736 mmHg 96%

19 January, Tuesday

Time Temperature Precipitation Wind Pressure Humidity
00:00 +24°C° 0.1 mm 1 mps 736 mmHg 96%
01:00 +24°C° 0.1 mm 1 mps 736 mmHg 97%
02:00 +24°C° 0.2 mm 1 mps 735 mmHg 97%
03:00 +24°C° 0.2 mm 1 mps 735 mmHg 97%
04:00 +24°C° 0.2 mm 1 mps 735 mmHg 96%
05:00 +24°C° 0.1 mm 1 mps 735 mmHg 95%
06:00 +22°C° 0.1 mm 0 mps 735 mmHg 94%
07:00 +22°C° 0.1 mm 0 mps 736 mmHg 93%
08:00 +26°C° 0.2 mm 1 mps 736 mmHg 84%
09:00 +27°C° 0.2 mm 2 mps 737 mmHg 76%
10:00 +29°C° 0.2 mm 3 mps 737 mmHg 68%
11:00 +30°C° 0.6 mm 3 mps 737 mmHg 66%
12:00 +30°C° 0.6 mm 4 mps 737 mmHg 63%
13:00 +32°C° 0.6 mm 4 mps 736 mmHg 60%
14:00 +32°C° 0.6 mm 4 mps 736 mmHg 61%
15:00 +30°C° 0.6 mm 5 mps 736 mmHg 62%
16:00 +30°C° 0.6 mm 5 mps 735 mmHg 63%
17:00 +29°C° 0.4 mm 4 mps 735 mmHg 70%
18:00 +27°C° 0.4 mm 4 mps 735 mmHg 77%
19:00 +26°C° 0.4 mm 3 mps 736 mmHg 84%
20:00 +25°C° 0 mm 3 mps 736 mmHg 87%
21:00 +25°C° 0 mm 2 mps 736 mmHg 89%
22:00 +25°C° 0 mm 2 mps 737 mmHg 92%
23:00 +24°C° 0 mm 2 mps 736 mmHg 92%

20 January, Wednesday

Time Temperature Precipitation Wind Pressure Humidity
00:00 +24°C° 0 mm 1 mps 736 mmHg 93%
01:00 +24°C° 0 mm 1 mps 736 mmHg 94%
02:00 +24°C° 0 mm 1 mps 736 mmHg 94%
03:00 +24°C° 0 mm 1 mps 735 mmHg 94%
04:00 +23°C° 0 mm 1 mps 735 mmHg 94%
05:00 +22°C° 0.1 mm 0 mps 735 mmHg 93%
06:00 +22°C° 0.1 mm 0 mps 736 mmHg 92%
07:00 +22°C° 0.1 mm 0 mps 736 mmHg 91%
08:00 +26°C° 0.2 mm 1 mps 737 mmHg 83%
09:00 +27°C° 0.2 mm 2 mps 737 mmHg 76%
10:00 +29°C° 0.2 mm 3 mps 737 mmHg 68%
11:00 +29°C° 0.3 mm 3 mps 737 mmHg 65%
12:00 +30°C° 0.3 mm 4 mps 737 mmHg 61%
13:00 +32°C° 0.3 mm 4 mps 736 mmHg 57%
14:00 +32°C° 0 mm 4 mps 736 mmHg 57%
15:00 +32°C° 0 mm 4 mps 735 mmHg 56%
16:00 +32°C° 0 mm 5 mps 735 mmHg 55%
17:00 +29°C° 0.1 mm 4 mps 735 mmHg 64%
18:00 +28°C° 0.1 mm 4 mps 735 mmHg 72%
19:00 +26°C° 0.1 mm 3 mps 735 mmHg 80%
20:00 +26°C° 0 mm 3 mps 736 mmHg 83%
21:00 +25°C° 0 mm 2 mps 736 mmHg 86%
22:00 +25°C° 0 mm 2 mps 737 mmHg 89%
23:00 +25°C° 0 mm 2 mps 736 mmHg 90%

21 January, Thursday

Time Temperature Precipitation Wind Pressure Humidity
00:00 +24°C° 0 mm 2 mps 736 mmHg 91%
01:00 +24°C° 0 mm 1 mps 736 mmHg 92%
02:00 +24°C° 0.1 mm 1 mps 735 mmHg 92%
03:00 +24°C° 0.1 mm 2 mps 735 mmHg 91%
04:00 +24°C° 0.1 mm 2 mps 735 mmHg 91%
05:00 +24°C° 0.2 mm 2 mps 735 mmHg 90%
06:00 +25°C° 0.2 mm 2 mps 736 mmHg 89%
07:00 +25°C° 0.2 mm 2 mps 736 mmHg 88%
08:00 +26°C° 0.7 mm 2 mps 737 mmHg 83%
09:00 +27°C° 0.7 mm 3 mps 737 mmHg 78%
10:00 +28°C° 0.7 mm 4 mps 738 mmHg 74%
11:00 +28°C° 2 mm 4 mps 737 mmHg 73%
12:00 +28°C° 2 mm 4 mps 737 mmHg 73%
13:00 +29°C° 2 mm 5 mps 737 mmHg 72%
14:00 +28°C° 2.6 mm 5 mps 736 mmHg 73%
15:00 +28°C° 2.6 mm 5 mps 736 mmHg 75%
16:00 +28°C° 2.6 mm 5 mps 736 mmHg 76%
17:00 +27°C° 1.1 mm 4 mps 736 mmHg 80%
18:00 +26°C° 1.1 mm 3 mps 736 mmHg 83%
19:00 +25°C° 1.1 mm 2 mps 736 mmHg 87%
20:00 +25°C° 0.1 mm 2 mps 737 mmHg 88%
21:00 +25°C° 0.1 mm 1 mps 737 mmHg 89%
22:00 +24°C° 0.1 mm 1 mps 737 mmHg 90%
23:00 +24°C° 0.1 mm 1 mps 737 mmHg 90%
Show more